• în România
  • Lista ţărilor
  • Pe 7 zile
  • Temperatura apei
  • Hartă satelitară
  • Meteo pe hartă
  • Widget-uri
  • user-avatar
    Intrare

    Meteo pe oră la Vinkovcy

    Astăzi, 21 Octombrie, Sâmbătă

    Timp Temperatura Precipitaţii Vânt Presiune Umiditate
    00:00 +16°C° 0 mm 2 m/s 756 mmHg 62%
    01:00 +15°C° 0 mm 2 m/s 757 mmHg 66%
    02:00 +15°C° 0 mm 2 m/s 756 mmHg 70%
    03:00 +14°C° 0 mm 2 m/s 756 mmHg 73%
    04:00 +14°C° 0 mm 2 m/s 756 mmHg 77%
    05:00 +14°C° 0 mm 2 m/s 756 mmHg 78%
    06:00 +14°C° 0 mm 2 m/s 756 mmHg 78%
    07:00 +14°C° 0 mm 2 m/s 757 mmHg 79%
    08:00 +16°C° 0 mm 2 m/s 757 mmHg 70%
    09:00 +18°C° 0 mm 2 m/s 757 mmHg 61%
    10:00 +20°C° 0 mm 2 m/s 757 mmHg 52%
    11:00 +21°C° 0 mm 2 m/s 756 mmHg 47%
    12:00 +22°C° 0 mm 3 m/s 756 mmHg 42%
    13:00 +24°C° 0 mm 3 m/s 756 mmHg 37%
    14:00 +24°C° 0 mm 2 m/s 755 mmHg 38%
    15:00 +23°C° 0 mm 2 m/s 755 mmHg 40%
    16:00 +23°C° 0 mm 2 m/s 755 mmHg 42%
    17:00 +21°C° 0 mm 1 m/s 755 mmHg 46%
    18:00 +20°C° 0 mm 1 m/s 755 mmHg 50%
    19:00 +18°C° 0 mm 1 m/s 755 mmHg 54%
    20:00 +18°C° 0 mm 1 m/s 755 mmHg 56%
    21:00 +16°C° 0 mm 1 m/s 755 mmHg 58%
    22:00 +16°C° 0 mm 1 m/s 755 mmHg 60%
    23:00 +15°C° 0 mm 1 m/s 755 mmHg 61%

    Mâine, 22 Octombrie, Duminică

    Timp Temperatura Precipitaţii Vânt Presiune Umiditate
    00:00 +15°C° 0 mm 1 m/s 755 mmHg 63%
    01:00 +15°C° 0 mm 1 m/s 755 mmHg 65%
    02:00 +14°C° 0 mm 1 m/s 755 mmHg 66%
    03:00 +14°C° 0 mm 1 m/s 755 mmHg 68%
    04:00 +14°C° 0 mm 1 m/s 755 mmHg 70%
    05:00 +14°C° 0 mm 1 m/s 755 mmHg 70%
    06:00 +14°C° 0 mm 1 m/s 755 mmHg 71%
    07:00 +14°C° 0 mm 1 m/s 755 mmHg 71%
    08:00 +16°C° 0 mm 1 m/s 754 mmHg 64%
    09:00 +19°C° 0 mm 1 m/s 754 mmHg 58%
    10:00 +19°C° 0 mm 0 m/s 754 mmHg 51%
    11:00 +20°C° 0 mm 0 m/s 754 mmHg 49%
    12:00 +22°C° 0 mm 1 m/s 753 mmHg 47%
    13:00 +23°C° 0 mm 1 m/s 753 mmHg 44%
    14:00 +23°C° 0 mm 1 m/s 752 mmHg 46%
    15:00 +22°C° 0 mm 1 m/s 752 mmHg 48%
    16:00 +22°C° 0 mm 1 m/s 751 mmHg 50%
    17:00 +20°C° 0 mm 2 m/s 751 mmHg 53%
    18:00 +19°C° 0 mm 2 m/s 751 mmHg 55%
    19:00 +18°C° 0 mm 2 m/s 751 mmHg 58%
    20:00 +17°C° 0,5 mm 3 m/s 751 mmHg 63%
    21:00 +16°C° 0,5 mm 3 m/s 751 mmHg 69%
    22:00 +14°C° 0,5 mm 3 m/s 751 mmHg 74%
    23:00 +14°C° 0,6 mm 4 m/s 751 mmHg 77%

    Poimâine, 23 Octombrie, Luni

    Timp Temperatura Precipitaţii Vânt Presiune Umiditate
    00:00 +13°C° 0,6 mm 4 m/s 750 mmHg 81%
    01:00 +12°C° 0,6 mm 5 m/s 750 mmHg 84%
    02:00 +12°C° 1,9 mm 5 m/s 750 mmHg 84%
    03:00 +10°C° 1,9 mm 6 m/s 750 mmHg 85%
    04:00 +10°C° 1,9 mm 7 m/s 750 mmHg 85%
    05:00 +9°C° 1,8 mm 7 m/s 749 mmHg 85%
    06:00 +9°C° 1,8 mm 6 m/s 749 mmHg 84%
    07:00 +9°C° 1,8 mm 6 m/s 749 mmHg 84%
    08:00 +9°C° 2 mm 7 m/s 750 mmHg 84%
    09:00 +9°C° 2 mm 7 m/s 750 mmHg 84%
    10:00 +9°C° 2 mm 7 m/s 750 mmHg 83%
    11:00 +9°C° 1,1 mm 7 m/s 750 mmHg 82%
    12:00 +9°C° 1,1 mm 7 m/s 750 mmHg 81%
    13:00 +9°C° 1,1 mm 7 m/s 750 mmHg 80%
    14:00 +9°C° 0,7 mm 7 m/s 750 mmHg 80%
    15:00 +9°C° 0,7 mm 6 m/s 751 mmHg 80%
    16:00 +9°C° 0,7 mm 6 m/s 751 mmHg 80%
    17:00 +9°C° 0,4 mm 6 m/s 751 mmHg 80%
    18:00 +9°C° 0,4 mm 6 m/s 751 mmHg 80%
    19:00 +9°C° 0,4 mm 6 m/s 751 mmHg 80%
    20:00 +9°C° 0,3 mm 6 m/s 751 mmHg 80%
    21:00 +9°C° 0,3 mm 6 m/s 752 mmHg 80%
    22:00 +9°C° 0,3 mm 6 m/s 752 mmHg 80%
    23:00 +8°C° 0,2 mm 6 m/s 752 mmHg 80%

    24 Octombrie, Marţi

    Timp Temperatura Precipitaţii Vânt Presiune Umiditate
    00:00 +8°C° 0,2 mm 6 m/s 752 mmHg 80%
    01:00 +8°C° 0,2 mm 6 m/s 752 mmHg 80%
    02:00 +8°C° 0,3 mm 6 m/s 752 mmHg 80%
    03:00 +8°C° 0,3 mm 6 m/s 752 mmHg 80%
    04:00 +8°C° 0,3 mm 6 m/s 752 mmHg 81%
    05:00 +8°C° 0,3 mm 7 m/s 752 mmHg 81%
    06:00 +8°C° 0,3 mm 7 m/s 753 mmHg 81%
    07:00 +9°C° 0,3 mm 7 m/s 753 mmHg 82%
    08:00 +9°C° 0,4 mm 7 m/s 753 mmHg 81%
    09:00 +9°C° 0,4 mm 7 m/s 754 mmHg 80%
    10:00 +9°C° 0,4 mm 7 m/s 754 mmHg 79%
    11:00 +10°C° 0,3 mm 7 m/s 754 mmHg 77%
    12:00 +10°C° 0,3 mm 7 m/s 754 mmHg 74%
    13:00 +11°C° 0,3 mm 7 m/s 754 mmHg 71%
    14:00 +11°C° 0,1 mm 7 m/s 755 mmHg 70%
    15:00 +11°C° 0,1 mm 6 m/s 755 mmHg 69%
    16:00 +11°C° 0,1 mm 6 m/s 755 mmHg 68%
    17:00 +11°C° 0 mm 6 m/s 756 mmHg 69%
    18:00 +10°C° 0 mm 5 m/s 757 mmHg 71%
    19:00 +10°C° 0 mm 5 m/s 757 mmHg 72%
    20:00 +9°C° 0 mm 5 m/s 758 mmHg 73%
    21:00 +8°C° 0 mm 4 m/s 758 mmHg 75%
    22:00 +8°C° 0 mm 4 m/s 759 mmHg 76%
    23:00 +7°C° 0 mm 4 m/s 759 mmHg 77%

    25 Octombrie, Miercuri

    Timp Temperatura Precipitaţii Vânt Presiune Umiditate
    00:00 +7°C° 0 mm 4 m/s 759 mmHg 77%
    01:00 +6°C° 0 mm 4 m/s 760 mmHg 78%
    02:00 +7°C° 0 mm 3 m/s 760 mmHg 80%
    03:00 +5°C° 0 mm 3 m/s 760 mmHg 81%
    04:00 +5°C° 0 mm 3 m/s 760 mmHg 82%
    05:00 +6°C° 0 mm 2 m/s 761 mmHg 83%
    06:00 +6°C° 0 mm 2 m/s 761 mmHg 84%
    07:00 +6°C° 0 mm 2 m/s 761 mmHg 85%
    08:00 +7°C° 0 mm 3 m/s 762 mmHg 76%
    09:00 +9°C° 0 mm 3 m/s 762 mmHg 66%
    10:00 +11°C° 0 mm 4 m/s 762 mmHg 57%
    11:00 +11°C° 0 mm 4 m/s 762 mmHg 53%
    12:00 +12°C° 0 mm 4 m/s 762 mmHg 49%
    13:00 +13°C° 0 mm 4 m/s 761 mmHg 45%
    14:00 +13°C° 0 mm 3 m/s 761 mmHg 46%
    15:00 +12°C° 0 mm 3 m/s 761 mmHg 47%
    16:00 +13°C° 0 mm 2 m/s 761 mmHg 49%
    17:00 +12°C° 0 mm 2 m/s 762 mmHg 51%
    18:00 +10°C° 0 mm 2 m/s 762 mmHg 54%
    19:00 +9°C° 0 mm 1 m/s 763 mmHg 57%
    20:00 +9°C° 0 mm 1 m/s 763 mmHg 58%
    21:00 +9°C° 0 mm 1 m/s 763 mmHg 58%
    22:00 +8°C° 0 mm 1 m/s 764 mmHg 59%
    23:00 +8°C° 0 mm 1 m/s 764 mmHg 60%

    26 Octombrie, Joi

    Timp Temperatura Precipitaţii Vânt Presiune Umiditate
    00:00 +8°C° 0 mm 1 m/s 764 mmHg 61%
    01:00 +7°C° 0 mm 1 m/s 764 mmHg 62%
    02:00 +7°C° 0 mm 1 m/s 764 mmHg 63%
    03:00 +7°C° 0 mm 1 m/s 764 mmHg 64%
    04:00 +7°C° 0 mm 1 m/s 764 mmHg 66%
    05:00 +7°C° 0 mm 1 m/s 764 mmHg 65%
    06:00 +7°C° 0 mm 1 m/s 764 mmHg 65%
    07:00 +7°C° 0 mm 1 m/s 764 mmHg 65%
    08:00 +9°C° 0 mm 1 m/s 764 mmHg 61%
    09:00 +10°C° 0 mm 1 m/s 764 mmHg 57%
    10:00 +12°C° 0 mm 1 m/s 764 mmHg 52%
    11:00 +13°C° 0 mm 1 m/s 764 mmHg 51%
    12:00 +13°C° 0 mm 1 m/s 764 mmHg 50%
    13:00 +14°C° 0 mm 2 m/s 763 mmHg 49%
    14:00 +14°C° 0 mm 1 m/s 763 mmHg 52%
    15:00 +14°C° 0 mm 1 m/s 763 mmHg 55%
    16:00 +13°C° 0 mm 0 m/s 763 mmHg 59%
    17:00 +13°C° 0 mm 1 m/s 763 mmHg 62%
    18:00 +12°C° 0 mm 1 m/s 763 mmHg 65%
    19:00 +11°C° 0 mm 1 m/s 763 mmHg 69%
    20:00 +11°C° 0 mm 1 m/s 763 mmHg 70%
    21:00 +11°C° 0 mm 1 m/s 763 mmHg 72%
    22:00 +10°C° 0 mm 2 m/s 764 mmHg 74%
    23:00 +10°C° 0 mm 2 m/s 763 mmHg 77%
    Arată mai mult